Regional Weather Roundup
Issued by NWS

Home | Current Version | Previous Version | Text Only | Print | Product List | Glossary Off
Versions: 1 2 3 4 5 6 7 8 9 10 11 12 13 14 15 16 17 18 19 20 21 22 23 24 25 26 27 28 29 30 31 32 33 34 35 36 37 38 39 40 41 42 43 44 45 46 47 48 49 50

000
ASUS43 KTOP 281659
RWRKS

WEATHER ROUNDUP FOR KANSAS
NATIONAL WEATHER SERVICE GOODLAND KS
1200 PM CDT MON JUL 28 2014

NOTE:  "FAIR" INDICATES FEW OR NO CLOUDS BELOW 12,000 FEET WITH NO
SIGNIFICANT WEATHER AND/OR OBSTRUCTIONS TO VISIBILITY.

KSZ001>006-013>018-027>032-041>047-281800-
NORTHWEST KANSAS

CITY           SKY/WX    TMP DP  RH WIND       PRES   REMARKS
GOODLAND       PTSUNNY   79  56  45 S17       30.34S
HAYS           SUNNY     75  57  53 S7        30.33F
HILL CITY      SUNNY     78  58  49 SE8       30.32F
RUSSELL        SUNNY     77  57  50 MISG      30.31F
$$

KSZ061>065-074>080-084>089-281800-
SOUTHWEST KANSAS

CITY           SKY/WX    TMP DP  RH WIND       PRES   REMARKS
DODGE CITY     PTSUNNY   79  55  43 S10       30.33F
ELKHART          N/A     67  55  65 S10         N/A
GARDEN CITY    CLOUDY    75  61  61 S5        30.33S
GREAT BEND     SUNNY     75  59  57 SW5       30.31F
LIBERAL        CLOUDY    75  59  57 SW10      30.35R
$$

KSZ066>073-081>083-090>101-281800-
SOUTHEAST KANSAS

CITY           SKY/WX    TMP DP  RH WIND       PRES   REMARKS
CHANUTE        SUNNY     79  60  52 NW13G18   30.26S
COFFEYVILLE    SUNNY     80  61  52 N14G21    30.24S
HUTCHINSON     SUNNY     79  60  52 MISG      30.31F
MEDICINE LODGE   N/A     81  59  47 CALM      30.29F
NEWTON         SUNNY     79  55  44 NW12G18   30.34R
PARSONS        SUNNY     80  59  48 N6        30.25F
WICHITA INTL   MOSUNNY   80  59  48 NW8       30.29F
WICHITA JABRA  SUNNY     80  60  50 N8        30.29S
WINFIELD       SUNNY     81  61  50 NW12      30.29S
$$

KSZ007>012-019>026-033>040-048>060-102>105-281800-
NORTHEAST KANSAS

CITY           SKY/WX    TMP DP  RH WIND       PRES   REMARKS
CONCORDIA      MOSUNNY   77  58  51 NE6       30.31F
EMPORIA        SUNNY     76  57  51 NW9G20    30.27F
LAWRENCE       MOSUNNY   79  60  52 VRB7G17   30.24S
MANHATTAN      SUNNY     76  57  51 VRB5      30.28F
OLATHE IND     MOSUNNY   74  59  59 N10G16    30.24S
OLATHE EXE     MOSUNNY   75  59  57 N8        30.23S
SALINA         SUNNY     80  55  42 N10       30.31F
TOPEKA BILLARD MOSUNNY   78  57  48 N12       30.26S
TOPEKA FORBES  SUNNY     78  56  46 NW13G24   30.26R
$$


USA.gov is the U.S. government's official web portal to all federal, state and local government web resources and services.